Regional Weather Roundup
Issued by NWS

Home | Current Version | Previous Version | Text Only | Print | Product List | Glossary Off
Versions: 1 2 3 4 5 6 7 8 9 10 11 12 13 14 15 16 17 18 19 20 21 22 23 24 25 26 27 28 29 30 31 32 33 34 35 36 37 38 39 40 41 42 43 44 45 46 47 48 49 50

000
ASUS44 KMEG 290910
RWRTN
TENNESSEE HOURLY STATE WEATHER ROUNDUP
NATIONAL WEATHER SERVICE MEMPHIS TN
400 AM CDT FRI JUL 29 2016

TNZ002-004-019-021-049-052-054-088>092-291000-
WEST TENNESSEE

CITY           SKY/WX    TMP DP  RH WIND       PRES   REMARKS
MEMPHIS INTL   CLOUDY    76  72  87 SW6       29.96S
NWS MEMPHIS      N/A     76 N/A N/A MISG        N/A
JACKSON        CLEAR     75  75 100 S5        29.94S
DYERSBURG      CLOUDY   N/A N/A N/A MISG        N/A
UNION CITY     CLEAR     73  73 100 CALM      29.92S
PARIS          PTCLDY    72  72 100 CALM      29.94S
LEXINGTON      CLOUDY    75  73  94 S5        29.95R
$$

TNZ008-025-027-028-033-062-065-066-291000-
NORTH MIDDLE TENNESSEE

CITY           SKY/WX    TMP DP  RH WIND       PRES   REMARKS
NASHVILLE      CLOUDY    78  73  84 CALM      29.97R
CLARKSVILLE    MOCLDY    75  72  90 SW6       29.94R
SMYRNA         CLOUDY    77  74  90 VRB5      29.98R
COOKEVILLE     CLOUDY    73  73 100 S3        29.99S
CROSSVILLE     CLOUDY    71  70  96 VRB5      30.04S FOG
$$

TNZ061-075-076-078-094-096-097-291000-
SOUTH MIDDLE TENNESSEE

CITY           SKY/WX    TMP DP  RH WIND       PRES   REMARKS
FAYETTEVILLE   CLOUDY    73  73 100 VRB6      30.01R
TULLAHOMA      CLOUDY    72  72 100 SW6       30.02R
WINCHESTER     CLOUDY    73  72  94 W3        30.02R
MCMINNVILLE    CLOUDY    73  73 100 S5        30.01S
COLUMBIA       CLOUDY   N/A N/A N/A SW6       29.97R
SHELBYVILLE    CLOUDY    75  75 100 S5        30.00R
$$

TNZ017-018-042-046-047-291000-
NORTHEAST TENNESSEE

CITY           SKY/WX    TMP DP  RH WIND       PRES   REMARKS
TRI CITIES     CLOUDY    70  68  93 W6        30.01R
ELIZABETHTON   DRIZZLE   70  68  94 W8        30.00S
$$

TNZ012-013-036-069-073-074-291000-
CENTRAL EAST TENNESSEE

CITY           SKY/WX    TMP DP  RH WIND       PRES   REMARKS
KNOXVILLE      CLOUDY    74  72  93 SW3       29.99S
OAK RIDGE      PTCLDY    72  70  93 CALM      30.00S
GATLINBURG     CLEAR     70  70 100 CALM      30.00S
MORRISTOWN     CLOUDY    72  70  94 W7        30.01R
$$

TNZ083-085-099-291000-
SOUTHEAST TENNESSEE

CITY           SKY/WX    TMP DP  RH WIND       PRES   REMARKS
CHATTANOOGA    CLOUDY    76  71  85 SW5       30.00S
$$

SKY/WX REPORTED AS FAIR MEANS FEW OR NO CLOUDS BELOW
12 THOUSAND FEET.




USA.gov is the U.S. government's official web portal to all federal, state and local government web resources and services.